Probability
1 5 11 13 13 12 11 11 10 8 7 6 5 3 3 4 6 6 5 4 3 3 2 1 0 0 0 0 0 0 0 0 0 0 0 0 0 0 0 0 0 0 0
4 6 10 13 14 14 14 13 10 7 6 5 4 3 3 3 4 5 4 3 3 3 2 1 0 0 0 0 0 0 0 0 0 0 0 0 0 0 0 0 0 0 0
6 7 9 11 14 16 16 13 9 7 6 5 4 4 3 3 3 3 3 3 3 2 1 0 0 0 0 0 0 0 0 0 0 0 0 0 0 0 0 0 0 0 0
4 6 7 9 13 15 15 12 8 7 6 5 4 4 3 3 3 3 2 2 1 1 0 0 0 0 0 0 0 0 0 0 0 0 0 0 0 0 0 0 0 0 0
4 4 5 8 11 13 13 12 10 9 7 6 5 4 2 1 3 3 3 2 1 0 0 0 0 0 0 0 0 0 0 0 0 0 0 0 0 0 0 0 0 0 0
5 5 5 7 9 11 12 12 11 10 9 7 6 5 2 2 3 4 4 3 1 1 0 0 0 0 0 0 0 0 0 0 0 0 0 0 0 0 0 0 0 0 0
7 8 8 7 8 9 10 10 10 10 9 8 7 5 3 3 4 4 3 3 3 2 1 1 1 1 0 0 0 0 0 0 0 0 0 0 0 0 0 0 0 0 0
10 11 11 9 8 7 7 6 7 7 7 8 7 5 4 4 4 3 3 3 3 3 3 2 2 2 1 0 0 0 0 0 0 0 0 0 0 0 0 0 0 0 0
12 12 11 10 7 5 5 4 4 4 4 5 6 5 5 4 3 3 2 2 3 3 3 3 3 3 1 0 0 0 0 0 0 0 0 0 0 0 0 0 0 0 0
12 11 10 9 7 5 4 3 3 3 3 3 4 4 5 5 4 3 2 2 3 3 3 3 3 3 2 1 0 0 0 0 0 0 0 1 1 1 1 1 1 0 0
13 11 9 8 7 5 4 3 3 3 3 3 3 3 4 5 5 4 1 1 2 3 3 3 3 3 2 1 0 0 0 0 0 0 0 1 2 2 2 2 1 0 0
14 13 11 9 7 6 4 3 3 3 3 3 3 3 3 4 5 4 2 1 2 3 3 3 3 2 1 0 0 0 0 0 0 0 0 1 2 3 2 1 1 0 0
15 15 14 12 9 7 5 4 3 3 3 3 3 3 3 3 3 3 2 1 2 3 3 3 2 1 0 0 0 0 0 0 0 0 0 0 1 2 2 1 0 0 0
14 14 14 13 10 7 5 4 3 3 3 3 3 3 3 3 2 2 2 1 1 3 3 3 1 0 0 0 0 0 0 0 0 0 0 0 0 1 2 1 0 0 0
10 10 11 12 10 6 4 3 3 3 3 3 3 3 3 3 3 1 1 2 2 2 3 2 1 0 0 0 0 0 0 0 0 0 0 0 0 0 1 1 0 0 1
6 6 7 9 10 6 4 3 3 3 3 3 3 3 3 3 3 2 2 2 2 2 2 2 1 0 0 0 0 0 0 0 0 0 0 0 0 0 0 0 0 1 2
4 3 4 6 8 7 4 3 3 3 3 3 3 3 3 3 3 3 2 2 2 2 3 2 1 0 0 0 0 0 0 0 0 0 0 0 0 0 0 0 0 1 2
3 3 2 3 4 4 3 3 3 3 3 3 3 3 3 3 3 2 1 1 1 3 3 3 2 1 0 0 0 0 0 0 0 0 0 0 0 0 0 0 0 0 1
3 2 2 2 1 1 1 1 2 3 3 3 1 1 2 2 1 1 1 0 1 2 3 3 2 1 0 0 0 0 0 0 0 0 0 0 0 0 0 0 0 0 0
3 3 2 2 1 0 0 0 2 3 3 2 1 0 1 1 1 1 1 0 0 1 2 3 2 1 0 0 0 0 0 0 0 0 0 0 0 0 0 0 0 0 0
3 3 4 3 1 0 0 0 1 2 1 1 0 0 0 0 0 1 1 0 0 1 1 3 2 1 0 0 0 0 0 0 0 0 0 0 0 0 0 0 0 0 0
3 3 3 2 1 0 0 0 1 1 0 0 0 0 0 0 0 0 0 1 1 2 2 3 3 1 0 0 0 0 0 0 0 0 0 0 0 0 0 0 0 0 0
2 2 1 1 0 0 0 0 0 0 0 0 0 0 0 0 0 0 1 2 3 3 3 4 4 2 0 0 0 0 0 0 0 0 0 0 0 0 0 0 0 0 0
1 1 0 0 0 0 0 0 0 0 0 0 0 0 0 0 0 1 2 3 3 3 3 4 4 2 0 0 0 0 0 0 0 0 0 0 0 0 0 0 0 0 0
0 0 0 0 0 0 0 0 0 0 0 0 0 0 0 0 0 2 3 3 3 3 3 3 3 2 1 1 0 0 0 0 0 0 0 0 0 0 0 0 0 0 0
0 0 0 0 0 0 0 0 0 0 0 0 0 0 0 0 0 1 3 3 3 3 3 3 3 3 2 2 1 0 0 0 0 0 0 0 0 0 0 0 0 0 0
Wind_Speed
1 2 4 6 8 9 10 10 10 10 10 11 11 11 11 11 11 11 11 11 11 11 12 12 12 12 12 12 12 12 12 12 12 12 11 11 11 12 12 11 10 7 12
4 4 4 6 8 9 9 10 10 10 10 10 11 10 10 11 11 11 10 10 10 11 11 11 11 11 12 11 11 11 11 11 12 11 11 9 10 11 11 11 10 7 11
5 4 4 5 8 9 9 9 9 10 10 10 10 10 10 10 10 10 10 9 10 10 10 10 11 11 11 11 10 10 10 11 10 11 10 5 6 10 10 10 11 11 11
6 4 4 5 7 9 9 9 9 9 10 9 10 10 10 10 10 10 9 9 9 9 10 10 10 10 10 10 9 9 9 9 10 9 5 4 4 8 10 10 10 10 10
5 4 4 6 8 8 9 9 9 9 9 9 9 9 9 9 10 10 9 9 9 9 9 9 9 9 9 9 9 9 9 9 9 7 4 3 3 7 9 9 9 9 9
5 3 4 7 8 8 8 8 8 8 9 8 8 8 9 9 9 9 9 8 8 8 8 8 8 8 8 8 8 8 8 8 7 4 3 3 2 6 8 9 8 8 8
5 3 4 7 7 7 7 7 7 7 8 8 8 8 8 8 8 9 8 8 8 8 8 8 8 8 8 7 8 8 8 8 5 3 3 2 3 7 7 7 7 7 7
6 4 4 6 7 7 6 6 6 6 7 7 7 8 8 8 8 8 8 8 7 8 8 8 7 7 7 7 7 8 8 7 5 4 2 2 4 6 6 6 6 6 6
6 5 4 4 4 5 6 6 6 6 6 7 7 7 7 7 7 7 7 7 7 8 8 8 8 7 7 7 8 8 8 7 4 2 2 1 3 5 5 5 5 5 5
5 4 4 3 3 3 3 5 5 5 6 6 6 7 6 6 6 6 6 6 7 7 7 7 7 7 7 7 7 7 7 5 3 2 1 1 4 4 5 4 4 4 4
4 3 3 3 3 2 3 3 4 4 5 5 5 6 5 3 3 4 5 5 6 6 6 6 7 7 6 6 6 6 5 2 3 2 1 2 4 5 5 5 4 4 3
3 3 3 3 3 3 2 2 2 2 2 3 3 3 3 2 2 3 5 5 5 5 5 5 5 5 4 2 3 5 2 3 2 1 1 2 4 4 4 4 5 5 5
3 3 2 3 3 3 2 2 1 1 2 2 3 2 2 2 2 2 2 2 3 4 3 3 3 2 2 1 2 2 2 2 1 1 2 2 2 3 3 3 4 4 5
3 3 2 2 3 3 2 2 2 2 1 2 2 2 2 2 2 2 1 1 1 1 2 2 1 2 2 2 2 2 2 1 1 1 2 2 1 2 2 2 2 3 4
3 3 3 3 3 3 3 2 2 2 2 2 2 2 2 2 2 2 2 1 1 1 1 1 1 2 1 1 2 2 1 1 1 1 1 2 2 1 0 1 2 2 3
2 3 3 3 3 3 3 3 2 2 2 2 2 2 2 2 2 2 2 1 1 1 1 2 2 1 1 1 1 1 1 1 1 1 1 1 2 2 1 1 1 1 2
3 2 3 3 3 3 4 4 3 2 2 2 1 2 2 2 2 2 2 2 1 1 2 1 1 2 1 1 1 1 1 1 1 1 1 1 1 2 2 2 2 2 2
3 2 3 2 3 3 3 3 3 2 3 2 1 1 2 2 2 2 2 1 1 1 2 2 2 1 1 1 1 1 1 1 1 1 1 1 1 1 2 3 3 2 2
3 3 3 3 3 3 2 3 3 2 2 2 2 1 1 1 2 2 2 1 2 2 1 2 1 1 1 0 0 1 1 1 1 1 1 1 1 1 1 3 3 2 3
1 2 3 3 2 2 2 2 2 2 2 1 2 1 1 1 1 2 1 1 2 2 1 2 2 1 1 1 0 1 1 1 1 1 1 1 1 1 1 2 2 2 3
2 2 2 2 1 1 1 2 2 2 1 1 1 1 2 1 2 2 2 2 2 2 2 2 2 1 1 1 1 1 2 2 1 1 1 1 1 1 1 1 1 1 2
3 2 2 2 1 1 1 2 2 2 1 1 1 1 1 1 1 2 2 2 2 2 2 2 2 1 1 1 1 1 1 2 2 1 1 1 1 1 1 2 1 1 1
2 1 2 2 2 1 1 0 1 2 1 0 0 1 1 1 1 1 2 2 2 2 3 3 3 3 2 1 1 2 2 2 2 2 1 1 1 1 2 2 2 2 2
1 0 1 2 2 2 2 2 1 1 1 1 1 1 1 1 1 1 1 2 2 2 3 3 3 2 3 2 1 1 1 2 2 2 2 1 2 2 2 2 2 2 2
0 1 1 2 2 2 2 1 1 1 0 0 0 0 1 1 1 1 2 2 2 2 3 3 3 3 3 3 2 1 1 0 1 2 3 2 2 2 2 2 2 2 2
1 1 2 2 2 2 2 1 1 1 1 1 1 1 1 1 1 2 2 2 2 2 2 3 4 4 4 3 2 2 2 2 2 2 2 2 3 3 2 2 2 2 2
Wind_Direction
173 172 143 133 124 120 118 113 108 106 104 102 100 98 97 95 94 93 93 92 89 87 86 83 81 80 79 77 75 74 73 73 71 72 72 74 76 77 75 74 73 70 74
154 160 142 132 125 120 117 116 112 110 109 107 105 102 101 99 97 96 94 91 90 89 87 86 83 81 80 79 77 74 72 72 71 71 71 69 74 78 78 79 78 77 78
135 148 147 127 126 121 117 117 117 115 113 110 107 105 105 102 101 100 97 95 93 92 89 87 86 85 81 78 77 76 76 74 72 73 66 52 69 79 81 81 80 79 80
135 142 140 125 125 126 119 117 117 117 114 111 109 107 107 105 104 101 99 97 97 95 93 91 88 86 82 80 78 77 76 74 73 73 55 45 58 80 82 82 82 81 80
126 131 131 118 119 120 119 116 115 117 115 113 110 109 110 108 103 102 99 98 99 99 97 93 89 87 84 80 78 77 75 75 75 65 51 46 51 82 83 83 84 81 80
118 115 125 113 113 110 108 112 113 117 116 113 110 110 112 110 104 102 98 98 100 99 100 98 94 92 88 83 77 75 76 78 71 56 54 49 56 85 86 87 87 85 83
120 113 121 106 107 104 101 100 107 115 117 112 109 109 109 108 105 103 100 98 98 98 100 101 98 94 89 84 78 73 73 78 72 63 54 54 81 90 89 88 90 91 90
129 122 123 108 105 102 97 96 99 108 110 110 109 108 108 107 105 102 100 99 99 97 96 98 97 92 88 81 79 75 69 70 69 64 56 60 96 99 93 92 93 92 93
123 120 121 126 117 108 99 90 95 97 104 107 106 105 105 102 103 103 98 99 99 96 94 96 94 93 88 83 81 74 65 63 61 59 61 62 104 106 100 97 97 100 105
112 119 125 123 116 117 114 99 96 95 93 95 100 99 101 100 101 102 98 100 101 96 94 94 93 92 86 82 79 74 65 59 52 48 32 88 104 105 99 96 94 98 113
107 120 127 125 118 118 119 108 104 100 94 91 97 100 99 100 105 107 98 98 101 97 95 94 93 91 81 72 69 72 63 49 49 40 19 95 102 103 98 93 91 94 110
132 141 138 134 130 125 121 110 103 97 98 88 88 99 93 96 100 102 101 98 95 92 93 94 94 87 69 57 61 64 60 56 48 29 13 79 105 106 103 94 89 87 85
157 137 142 145 142 137 130 120 103 98 98 95 87 93 100 93 97 97 100 101 95 86 80 84 80 58 61 60 58 61 63 59 45 10 13 48 97 109 112 105 95 98 95
144 152 152 150 149 146 137 135 129 126 119 110 106 95 108 108 106 122 119 115 99 87 90 82 78 70 63 69 73 67 57 55 43 9 1 26 53 98 106 125 121 111 104
161 168 164 160 155 149 141 147 139 143 141 138 128 114 103 121 139 142 139 132 130 122 116 110 104 93 75 66 69 75 62 58 37 25 339 5 13 11 88 148 158 137 126
183 186 168 160 161 156 154 160 156 149 144 140 136 126 125 126 146 148 143 145 153 154 146 143 136 119 100 82 70 61 46 39 26 23 337 336 343 341 318 278 235 202 180
190 204 178 173 161 163 167 161 151 150 146 147 149 140 129 129 141 148 148 155 182 172 147 132 116 103 85 58 43 39 42 19 354 344 333 331 315 327 316 291 280 261 237
181 190 192 164 163 165 166 162 154 151 152 155 151 148 137 140 138 143 151 166 177 153 145 144 135 108 90 62 14 348 353 356 335 332 341 331 323 325 311 307 297 285 269
182 182 184 165 169 171 163 154 151 150 149 151 144 146 155 153 156 157 160 166 155 145 141 140 125 123 125 100 308 335 339 333 304 310 311 330 337 344 335 329 326 310 283
129 150 162 152 156 162 154 141 134 130 141 143 145 156 167 175 173 163 158 161 155 147 144 144 147 130 142 164 43 348 313 295 302 287 287 324 344 347 349 349 346 333 319
71 100 127 132 148 143 165 173 168 174 171 165 160 166 175 185 189 169 170 170 168 169 180 165 159 136 107 96 62 350 333 325 322 311 329 348 339 327 347 353 350 336 318
66 70 106 108 124 165 200 198 176 161 172 179 168 157 167 183 201 189 179 176 178 172 170 162 145 147 145 131 121 98 335 325 319 317 315 303 306 337 341 341 347 340 325
66 63 77 65 54 30 10 99 104 105 91 100 216 203 227 207 198 202 193 180 183 178 187 189 170 162 179 196 155 147 156 230 290 299 285 284 297 327 320 326 321 311 317
163 103 72 65 53 38 51 64 119 154 187 222 224 229 237 211 199 201 198 200 196 194 193 199 184 179 171 192 208 207 189 170 182 282 303 299 288 280 272 295 302 305 300
94 82 66 69 56 42 48 70 91 69 292 280 259 261 258 237 215 207 200 208 209 212 204 203 194 186 184 190 192 192 208 215 196 199 265 292 295 268 261 259 265 279 296
48 44 43 56 48 38 48 48 81 88 10 11 316 251 259 269 258 240 220 215 218 221 213 214 210 197 196 193 197 192 184 186 201 201 224 263 279 284 279 264 251 254 265